FW4256 Weather Reports


time (UTC)temp
C
wind
direction
speed
KPH
gust
KPH
rain 1hr
cm
rain 24hr
cm
rain mn
cm
humidity
%
barometer
mb
20260510204504 15 360 0.0 4.8 0.00 0.30 0.00 85 1005.0
20260510203004 17 360 0.0 6.4 0.00 0.30 0.00 78 1004.7
20260510201502 18 360 0.0 4.8 0.00 0.30 0.00 75 1004.5
20260510200002 18 360 3.2 8.0 0.00 0.33 0.00 74 1004.6
20260510194501 19 360 1.6 6.4 0.00 0.33 0.00 75 1004.7
20260510193000 19 360 0.0 6.4 0.00 0.33 0.00 73 1004.4
20260510191605 19 360 0.0 6.4 0.00 0.33 0.00 73 1004.7
20260510184559 19 360 0.0 0.0 0.00 0.33 0.00 71 1004.6
20260510183059 20 360 0.0 1.6 0.00 0.33 0.00 72 1004.6
20260510181557 -17 0.0 0.0 0.00 0.33 0.00 1004.7
20260510180104 21 360 1.6 8.0 0.00 0.33 0.00 67 1004.6
20260510174551 -17 360 1.6 6.4 0.00 0.33 0.00 1004.6
20260510173046 -17 0.0 0.0 0.00 0.33 0.00 1004.7
20260510171543 20 360 3.2 6.4 0.00 0.33 0.00 71 1004.5
20260510170043 -17 0.0 0.0 0.00 0.33 0.00 1004.4
20260510164545 -17 0.0 0.0 0.00 0.33 0.00 1004.6
20260510163030 18 360 1.6 6.4 0.00 0.33 0.00 80 1004.9
20260510161527 17 360 0.0 4.8 0.00 0.33 0.00 83 1005.0
20260510160126 17 360 0.0 6.4 0.00 0.33 0.00 84 1004.9
20260510154540 16 360 1.6 4.8 0.00 0.33 0.00 84 1004.9
20260510153023 16 360 1.6 4.8 0.00 0.33 0.00 88 1005.2
20260510151516 15 360 0.0 4.8 0.00 0.33 0.00 89 1005.2
20260510150112 14 360 0.0 0.0 0.00 0.33 0.00 91 1005.2
20260510144515 13 360 0.0 0.0 0.00 0.33 0.00 93 1005.4
20260510143007 13 360 0.0 0.0 0.00 0.33 0.00 96 1005.2
20260510141501 -17 0.0 0.0 0.00 0.33 0.00 1005.2
20260510140059 11 360 0.0 0.0 0.00 0.33 0.00 97 1005.4
20260510134604 11 360 0.0 0.0 0.00 0.33 0.00 97 1005.4
20260510133055 11 360 0.0 0.0 0.00 0.33 0.00 98 1005.1
20260510131554 11 360 0.0 0.0 0.00 0.33 0.00 98 1004.7
20260510130059 11 360 0.0 0.0 0.00 0.33 0.00 98 1005.0
20260510124550 10 360 0.0 0.0 0.00 0.33 0.00 97 1004.9
20260510123053 10 360 0.0 0.0 0.00 0.33 0.00 97 1004.9
20260510121545 10 360 0.0 0.0 0.00 0.33 0.00 98 1005.0
20260510120042 10 360 0.0 0.0 0.00 0.33 0.00 98 1004.7
20260510114543 10 360 0.0 0.0 0.00 0.33 0.00 97 1004.4
20260510113037 10 360 0.0 0.0 0.00 0.33 0.00 97 1004.4
20260510111536 10 360 0.0 0.0 0.00 0.33 0.00 97 1004.2
20260510110036 10 360 0.0 0.0 0.00 0.33 0.00 97 1004.1
20260510104536 10 360 0.0 0.0 0.00 0.33 0.00 97 1004.2
20260510103036 10 360 0.0 0.0 0.00 0.33 0.00 97 1003.9
20260510101533 10 360 0.0 0.0 0.00 0.33 0.00 97 1003.9
20260510100033 10 360 0.0 0.0 0.00 0.33 0.00 97 1003.8
20260510094536 10 360 0.0 3.2 0.00 0.33 0.00 97 1003.5
20260510093033 10 360 0.0 0.0 0.00 0.33 0.00 96 1003.7
20260510091532 10 360 0.0 3.2 0.00 0.33 0.00 96 1003.5
20260510090031 10 360 0.0 3.2 0.00 0.33 0.00 97 1003.7
20260510084530 10 360 0.0 3.2 0.00 0.33 0.00 97 1003.8
20260510083126 10 360 0.0 1.6 0.00 0.33 0.00 97 1004.1
20260510081525 10 360 0.0 1.6 0.00 0.33 0.00 97 1004.0
20260510080033 10 360 0.0 0.0 0.00 0.33 0.00 97 1003.9
20260510074524 10 360 0.0 3.2 0.00 0.33 0.00 97 1003.9
20260510073027 10 360 0.0 1.6 0.00 0.33 0.00 97 1003.7
20260510071521 10 360 0.0 1.6 0.00 0.33 0.00 97 1003.6
20260510070020 10 360 0.0 0.0 0.00 0.33 0.00 97 1003.6
20260510064537 10 360 0.0 0.0 0.00 0.33 0.00 96 1003.8
20260510063025 10 360 0.0 1.6 0.00 0.33 0.00 97 1003.8
20260510061518 10 360 0.0 0.0 0.00 0.33 0.00 97 1003.8
20260510060015 10 360 0.0 0.0 0.00 0.33 0.00 96 1003.4
20260510054515 10 360 0.0 1.6 0.00 0.33 0.00 96 1003.4
20260510053034 10 360 0.0 1.6 0.00 0.33 0.00 96 1003.5
20260510051513 10 360 0.0 0.0 0.00 0.33 0.00 96 1003.7
20260510050012 10 360 0.0 1.6 0.00 0.33 0.00 96 1003.6
20260510044511 10 360 0.0 0.0 0.00 0.33 0.00 96 1003.6
20260510043010 10 360 0.0 0.0 0.00 0.33 0.00 96 1003.6
20260510041509 10 360 0.0 1.6 0.00 0.33 0.00 96 1003.6
20260510040006 10 360 0.0 1.6 0.00 0.33 0.33 96 1003.4
20260510034506 10 360 0.0 0.0 0.00 0.33 0.33 96 1003.4
20260510033005 10 360 0.0 0.0 0.00 0.33 0.33 96 1003.5
20260510031505 10 360 0.0 0.0 0.00 0.33 0.33 96 1003.7
20260510030004 11 360 0.0 1.6 0.00 0.33 0.33 96 1003.6
20260510024504 11 360 0.0 0.0 0.00 0.33 0.33 96 1003.7
20260510023004 11 360 0.0 1.6 0.00 0.33 0.33 96 1003.7
20260510021502 11 360 0.0 0.0 0.00 0.33 0.33 96 1003.5
20260510020002 11 360 0.0 0.0 0.00 0.33 0.33 96 1003.4
20260510014502 11 360 0.0 0.0 0.00 0.33 0.33 96 1003.3
20260510013001 11 360 0.0 1.6 0.00 0.33 0.33 96 1003.5
20260510011502 11 360 0.0 1.6 0.00 0.33 0.33 96 1003.4
20260510010100 11 360 0.0 1.6 0.03 0.33 0.33 96 1003.2
20260510004600 11 360 0.0 1.6 0.03 0.33 0.33 95 1002.8
20260510003107 11 360 0.0 1.6 0.03 0.33 0.33 95 1002.8
20260510001559 11 360 0.0 3.2 0.03 0.33 0.33 96 1002.5
20260510000126 11 360 0.0 3.2 0.00 0.30 0.30 96 1002.4
20260509234558 11 360 1.6 4.8 0.00 0.30 0.30 96 1002.5
20260509233057 11 360 0.0 3.2 0.00 0.30 0.30 95 1002.7
20260509231601 -17 0.0 0.0 0.00 0.30 0.30 1002.6
20260509230057 -17 0.0 0.0 0.00 0.30 0.30 1002.6
20260509224547 -17 0.0 0.0 0.00 0.30 0.30 1002.8
20260509223045 -17 0.0 0.0 0.08 0.30 0.30 1003.0
20260509221538 -17 0.0 0.0 0.20 0.30 0.30 1003.4
20260509220042 -17 0.0 0.0 0.23 0.30 0.30 1003.5
20260509214631 11 360 0.0 1.6 0.25 0.30 0.30 93 1003.3
20260509213030 11 360 1.6 4.8 0.15 0.20 0.20 93 1003.7
20260509211528 12 360 1.6 9.7 0.05 0.10 0.10 93 1003.7
20260509210028 12 360 0.0 1.6 0.05 0.08 0.08 94 1003.3